User: anonymous   Login
Location: Unspecified
(0.0000°N, 0.0000°E)
Time: 05:36:07
(UTC+00:00)
Language:

TIANWANG 1B (TW-1B) - Orbit

View from above orbital plane
View from above orbital plane
View from above satellite
View from above satellite

Ground track
Ground track

The orbit data is extracted from the following two-line orbital elements,

1 40927U 15051C   21090.23184234  .13278223  23525-5  52265-3 0  9996
2 40927  97.0132 151.3964 0010452 252.6213 145.1028 16.42992726311945
Epoch (UTC): 31 March 2021 05:33:51
Eccentricity: 0.0010452
inclination: 97.0132°
perigee height: 151 km
apogee height: 164 km
right ascension of ascending node: 151.3964°
argument of perigee: 252.6213°
revolutions per day: 16.42992726
mean anomaly at epoch: 145.1028°
orbit number at epoch: 31194

The dashed part of the orbit path shows where the satellite is in the earth's shadow,  

DLR